Location: Overspoor
(51.4747°N, 5.6641°E)
Time: 21:41:34
(UTC+02:00)

YUBILEINY - Pass Details

Date: 08 July 2022
Orbit: 1478 x 1509 km, 82.5° (Epoch: 08 August)

Event Time Altitude Azimuth Distance (km) Brightness Sun altitude
Rises 03:59:05 0° 348° (NNW) 4,653 ? -10.2°
Reaches altitude 10° 04:02:13 10° 355° (N) 3,665 ? -9.9°
Maximum altitude 04:10:35 45° 67° (ENE) 1,960 ? -9.2°
Drops below altitude 10° 04:18:50 10° 138° (SE) 3,625 ? -8.5°
Sets 04:21:53 0° 144° (SE) 4,598 ? -8.2°
